カタログに戻る

STARLINK-37777

運用中通信SSO
NORAD 69349·PAYLOAD·🇺🇸 United States

打ち上げ Jun 3, 2026 から Vandenberg Space Force Base

Loading…

次のパス (今後24時間)

TLE

最新Source: CelesTrak SupGP

元期: Sep 14, 2026, 23:09 UTC

1 69349C 26122W   26257.96506944  .00030492  00000+0  94657-3 0  2577
2 69349  97.2827 286.7161 0001031  87.0823 298.6670 15.33423236    13

AllMySatでSTARLINK-37777をリアルタイム追跡

Download on the App Store